| time (UTC) | temp F | wind direction | speed MPH | gust MPH | rain 1hr in | rain 24hr in | rain mn in | humidity % | barometer mb |
| 20260507191003 | 48 | 317 | 3.0 | 5.0 | 0.00 | 0.02 | 0.02 | 87 | 1014.9 |
| 20260507190008 | 48 | 318 | 3.0 | 5.0 | 0.00 | 0.02 | 0.02 | 88 | 1014.8 |
| 20260507185008 | 48 | 317 | 3.0 | 5.0 | 0.00 | 0.02 | 0.02 | 88 | 1015.1 |
| 20260507184003 | 49 | 317 | 3.0 | 5.0 | 0.00 | 0.02 | 0.02 | 89 | 1015.0 |
| 20260507183008 | 48 | 318 | 3.0 | 5.0 | 0.00 | 0.02 | 0.02 | 91 | 1014.9 |
| 20260507182222 | 48 | 317 | 3.0 | 4.0 | 0.02 | 0.02 | 0.02 | 91 | 1014.8 |
| 20260507181003 | 48 | 318 | 3.0 | 4.0 | 0.02 | 0.02 | 0.02 | 91 | 1014.8 |
| 20260507180008 | 48 | 318 | 3.0 | 4.0 | 0.02 | 0.02 | 0.02 | 89 | 1014.6 |
| 20260507175003 | 48 | 316 | 4.0 | 5.0 | 0.02 | 0.02 | 0.02 | 88 | 1014.6 |
| 20260507174008 | 48 | 318 | 4.0 | 5.0 | 0.02 | 0.02 | 0.02 | 87 | 1014.6 |
| 20260507173008 | 49 | 317 | 3.0 | 5.0 | 0.02 | 0.02 | 0.02 | 84 | 1014.9 |
| 20260507172008 | 49 | 322 | 3.0 | 6.0 | 0.00 | 0.00 | 0.00 | 87 | 1015.0 |
| 20260507171008 | 48 | 319 | 4.0 | 7.0 | 0.00 | 0.00 | 0.00 | 90 | 1014.7 |
| 20260507170008 | 48 | 318 | 4.0 | 7.0 | 0.00 | 0.00 | 0.00 | 88 | 1014.8 |
| 20260507165008 | 48 | 327 | 5.0 | 8.0 | 0.00 | 0.00 | 0.00 | 86 | 1015.0 |
| 20260507164003 | 50 | 320 | 4.0 | 10.0 | 0.00 | 0.00 | 0.00 | 80 | 1015.0 |
| 20260507163013 | 51 | 324 | 4.0 | 9.0 | 0.00 | 0.00 | 0.00 | 75 | 1014.9 |
| 20260507162008 | 53 | 315 | 3.0 | 6.0 | 0.00 | 0.00 | 0.00 | 65 | 1014.6 |
| 20260507161008 | 54 | 315 | 4.0 | 8.0 | 0.00 | 0.00 | 0.00 | 61 | 1014.8 |
| 20260507160217 | 54 | 307 | 4.0 | 8.0 | 0.00 | 0.00 | 0.00 | 59 | 1014.6 |
| 20260507155003 | 55 | 307 | 4.0 | 7.0 | 0.00 | 0.00 | 0.00 | 62 | 1014.6 |
| 20260507154003 | 56 | 313 | 4.0 | 9.0 | 0.00 | 0.00 | 0.00 | 61 | 1014.4 |
| 20260507153008 | 56 | 313 | 3.0 | 7.0 | 0.00 | 0.00 | 0.00 | 58 | 1014.6 |
| 20260507152008 | 56 | 307 | 4.0 | 10.0 | 0.00 | 0.00 | 0.00 | 61 | 1014.6 |
| 20260507151008 | 56 | 303 | 4.0 | 9.0 | 0.00 | 0.00 | 0.00 | 57 | 1014.7 |
| 20260507150003 | 56 | 302 | 4.0 | 8.0 | 0.00 | 0.00 | 0.00 | 58 | 1014.7 |
| 20260507145008 | 57 | 302 | 4.0 | 9.0 | 0.00 | 0.00 | 0.00 | 55 | 1014.6 |
| 20260507144008 | 58 | 297 | 3.0 | 8.0 | 0.00 | 0.00 | 0.00 | 52 | 1014.8 |
| 20260507143004 | 58 | 302 | 4.0 | 8.0 | 0.00 | 0.00 | 0.00 | 54 | 1014.8 |
| 20260507142008 | 58 | 301 | 4.0 | 8.0 | 0.00 | 0.00 | 0.00 | 54 | 1014.9 |
| 20260507141004 | 59 | 305 | 4.0 | 10.0 | 0.00 | 0.00 | 0.00 | 50 | 1014.9 |
| 20260507140003 | 61 | 292 | 4.0 | 9.0 | 0.00 | 0.00 | 0.00 | 53 | 1015.1 |
| 20260507135003 | 60 | 292 | 4.0 | 8.0 | 0.00 | 0.00 | 0.00 | 52 | 1015.1 |
| 20260507134218 | 59 | 287 | 4.0 | 8.0 | 0.00 | 0.00 | 0.00 | 55 | 1015.2 |
| 20260507133003 | 58 | 290 | 4.0 | 9.0 | 0.00 | 0.00 | 0.00 | 57 | 1015.2 |
| 20260507132008 | 59 | 294 | 4.0 | 8.0 | 0.00 | 0.00 | 0.00 | 56 | 1015.1 |
| 20260507131008 | 59 | 292 | 4.0 | 8.0 | 0.00 | 0.00 | 0.00 | 55 | 1015.2 |
| 20260507130008 | 60 | 302 | 4.0 | 8.0 | 0.00 | 0.00 | 0.00 | 56 | 1015.2 |
| 20260507125008 | 59 | 301 | 4.0 | 10.0 | 0.00 | 0.00 | 0.00 | 59 | 1015.2 |
| 20260507124218 | 58 | 301 | 4.0 | 10.0 | 0.00 | 0.00 | 0.00 | 62 | 1015.3 |
| 20260507123003 | 56 | 295 | 4.0 | 9.0 | 0.00 | 0.00 | 0.00 | 61 | 1015.5 |
| 20260507122003 | 58 | 298 | 4.0 | 8.0 | 0.00 | 0.00 | 0.00 | 56 | 1015.3 |
| 20260507121009 | 56 | 299 | 4.0 | 9.0 | 0.00 | 0.00 | 0.00 | 58 | 1015.3 |
| 20260507120008 | 56 | 302 | 4.0 | 10.0 | 0.00 | 0.00 | 0.00 | 59 | 1015.5 |
| 20260507115003 | 55 | 300 | 4.0 | 8.0 | 0.00 | 0.00 | 0.00 | 61 | 1015.7 |
| 20260507114217 | 56 | 311 | 4.0 | 9.0 | 0.00 | 0.00 | 0.00 | 60 | 1015.7 |
| 20260507113004 | 54 | 304 | 4.0 | 8.0 | 0.00 | 0.00 | 0.00 | 63 | 1015.8 |
| 20260507112003 | 53 | 309 | 5.0 | 8.0 | 0.00 | 0.00 | 0.00 | 71 | 1015.8 |
| 20260507111003 | 52 | 310 | 5.0 | 9.0 | 0.00 | 0.00 | 0.00 | 73 | 1015.9 |
| 20260507110223 | 53 | 306 | 4.0 | 8.0 | 0.00 | 0.00 | 0.00 | 70 | 1015.8 |
| 20260507105008 | 52 | 311 | 5.0 | 8.0 | 0.00 | 0.00 | 0.00 | 72 | 1016.0 |
| 20260507104008 | 51 | 313 | 5.0 | 9.0 | 0.00 | 0.00 | 0.00 | 71 | 1016.2 |
| 20260507103008 | 52 | 315 | 5.0 | 8.0 | 0.00 | 0.00 | 0.00 | 74 | 1016.1 |
| 20260507102003 | 51 | 311 | 4.0 | 6.0 | 0.00 | 0.00 | 0.00 | 76 | 1016.1 |
| 20260507101008 | 50 | 309 | 3.0 | 5.0 | 0.00 | 0.00 | 0.00 | 74 | 1016.2 |
| 20260507100217 | 50 | 312 | 3.0 | 7.0 | 0.00 | 0.00 | 0.00 | 75 | 1016.2 |
| 20260507095008 | 49 | 310 | 3.0 | 8.0 | 0.00 | 0.00 | 0.00 | 76 | 1016.2 |
| 20260507094003 | 48 | 310 | 3.0 | 7.0 | 0.00 | 0.00 | 0.00 | 81 | 1016.0 |
| 20260507093223 | 47 | 310 | 3.0 | 6.0 | 0.00 | 0.00 | 0.00 | 81 | 1016.0 |
| 20260507092222 | 46 | 312 | 4.0 | 6.0 | 0.00 | 0.00 | 0.00 | 84 | 1015.9 |
| 20260507091008 | 45 | 315 | 4.0 | 7.0 | 0.00 | 0.00 | 0.00 | 87 | 1015.8 |
| 20260507090008 | 45 | 313 | 4.0 | 7.0 | 0.00 | 0.00 | 0.00 | 89 | 1016.1 |
| 20260507085008 | 44 | 314 | 4.0 | 7.0 | 0.00 | 0.00 | 0.00 | 90 | 1015.9 |
| 20260507084008 | 43 | 314 | 4.0 | 6.0 | 0.00 | 0.00 | 0.00 | 92 | 1015.9 |
| 20260507083003 | 43 | 313 | 4.0 | 7.0 | 0.00 | 0.00 | 0.00 | 93 | 1015.7 |
| 20260507082008 | 43 | 311 | 5.0 | 7.0 | 0.00 | 0.00 | 0.00 | 94 | 1015.8 |
| 20260507081008 | 42 | 312 | 4.0 | 7.0 | 0.00 | 0.00 | 0.00 | 95 | 1015.9 |
| 20260507080008 | 42 | 313 | 4.0 | 6.0 | 0.00 | 0.00 | 0.00 | 95 | 1015.9 |
| 20260507075008 | 42 | 311 | 4.0 | 7.0 | 0.00 | 0.00 | 0.00 | 95 | 1015.9 |
| 20260507074008 | 41 | 307 | 4.0 | 8.0 | 0.00 | 0.00 | 0.00 | 95 | 1015.7 |
| 20260507073008 | 41 | 316 | 4.0 | 8.0 | 0.00 | 0.00 | 0.00 | 96 | 1015.7 |
| 20260507072008 | 41 | 308 | 4.0 | 9.0 | 0.00 | 0.00 | 0.00 | 97 | 1015.7 |
| 20260507071003 | 41 | 324 | 5.0 | 12.0 | 0.00 | 0.00 | 0.00 | 97 | 1015.6 |
| 20260507070222 | 41 | 329 | 5.0 | 11.0 | 0.00 | 0.00 | 0.00 | 98 | 1015.5 |
| 20260507065003 | 41 | 301 | 3.0 | 7.0 | 0.00 | 0.00 | 0.00 | 98 | 1015.5 |
| 20260507064003 | 41 | 304 | 3.0 | 7.0 | 0.00 | 0.00 | 0.00 | 98 | 1015.5 |
| 20260507063008 | 40 | 324 | 3.0 | 7.0 | 0.00 | 0.00 | 0.00 | 98 | 1015.3 |
| 20260507062217 | 40 | 259 | 4.0 | 9.0 | 0.00 | 0.00 | 0.00 | 98 | 1015.3 |
| 20260507061003 | 40 | 310 | 2.0 | 6.0 | 0.00 | 0.00 | 0.00 | 98 | 1015.5 |
| 20260507060221 | 40 | 321 | 2.0 | 5.0 | 0.00 | 0.00 | 0.00 | 98 | 1015.3 |
| 20260507055008 | 40 | 249 | 4.0 | 10.0 | 0.00 | 0.00 | 0.00 | 98 | 1015.1 |
| 20260507054008 | 40 | 309 | 4.0 | 7.0 | 0.00 | 0.00 | 0.00 | 98 | 1015.3 |
| 20260507053004 | 40 | 316 | 4.0 | 9.0 | 0.00 | 0.00 | 0.00 | 98 | 1015.5 |
| 20260507052003 | 40 | 301 | 3.0 | 7.0 | 0.00 | 0.00 | 0.00 | 98 | 1015.3 |
| 20260507051223 | 40 | 287 | 3.0 | 10.0 | 0.00 | 0.00 | 0.00 | 98 | 1015.5 |
| 20260507050003 | 40 | 332 | 5.0 | 11.0 | 0.00 | 0.00 | 0.00 | 98 | 1015.3 |
| 20260507045003 | 40 | 335 | 6.0 | 11.0 | 0.00 | 0.00 | 0.00 | 98 | 1015.1 |
| 20260507044008 | 40 | 327 | 5.0 | 11.0 | 0.00 | 0.00 | 0.00 | 98 | 1015.2 |
| 20260507043008 | 40 | 308 | 4.0 | 7.0 | 0.00 | 0.00 | 0.00 | 98 | 1015.1 |
| 20260507042003 | 40 | 320 | 4.0 | 8.0 | 0.00 | 0.00 | 0.00 | 98 | 1015.1 |
| 20260507041003 | 40 | 307 | 3.0 | 6.0 | 0.00 | 0.00 | 0.00 | 98 | 1015.1 |
| 20260507040222 | 40 | 312 | 4.0 | 6.0 | 0.00 | 0.00 | 0.00 | 98 | 1015.1 |
| 20260507035003 | 40 | 314 | 4.0 | 6.0 | 0.00 | 0.00 | 0.00 | 97 | 1015.3 |
| 20260507034003 | 40 | 318 | 4.0 | 7.0 | 0.00 | 0.00 | 0.00 | 97 | 1015.1 |
| 20260507033216 | 40 | 317 | 4.0 | 7.0 | 0.00 | 0.00 | 0.00 | 97 | 1015.0 |
| 20260507032003 | 40 | 318 | 4.0 | 7.0 | 0.00 | 0.00 | 0.00 | 97 | 1015.1 |
| 20260507031008 | 40 | 316 | 4.0 | 6.0 | 0.00 | 0.00 | 0.00 | 97 | 1015.1 |
| 20260507030218 | 40 | 319 | 4.0 | 7.0 | 0.00 | 0.00 | 0.00 | 97 | 1015.2 |
| 20260507025003 | 40 | 318 | 4.0 | 7.0 | 0.00 | 0.00 | 0.00 | 97 | 1015.3 |
| 20260507024003 | 40 | 318 | 4.0 | 7.0 | 0.00 | 0.00 | 0.00 | 97 | 1015.2 |
| 20260507023008 | 40 | 316 | 4.0 | 6.0 | 0.00 | 0.00 | 0.00 | 97 | 1015.2 |
| 20260507022003 | 40 | 317 | 4.0 | 6.0 | 0.00 | 0.00 | 0.00 | 97 | 1015.0 |
| 20260507021008 | 40 | 315 | 4.0 | 6.0 | 0.00 | 0.00 | 0.00 | 97 | 1015.0 |
| 20260507020218 | 40 | 317 | 4.0 | 7.0 | 0.00 | 0.00 | 0.00 | 97 | 1015.3 |
| 20260507015008 | 39 | 316 | 4.0 | 6.0 | 0.00 | 0.00 | 0.00 | 97 | 1015.5 |
| 20260507014003 | 39 | 317 | 4.0 | 7.0 | 0.00 | 0.00 | 0.00 | 96 | 1015.5 |
| 20260507013008 | 39 | 316 | 4.0 | 7.0 | 0.00 | 0.00 | 0.00 | 96 | 1015.3 |
| 20260507012003 | 39 | 317 | 4.0 | 5.0 | 0.00 | 0.00 | 0.00 | 95 | 1015.6 |
| 20260507010003 | 39 | 313 | 4.0 | 7.0 | 0.00 | 0.00 | 0.00 | 95 | 1015.5 |
| 20260507005003 | 40 | 310 | 4.0 | 8.0 | 0.00 | 0.00 | 0.00 | 94 | 1015.3 |
| 20260507004008 | 40 | 312 | 4.0 | 7.0 | 0.00 | 0.00 | 0.00 | 94 | 1015.5 |
| 20260507003003 | 40 | 308 | 4.0 | 7.0 | 0.00 | 0.00 | 0.00 | 93 | 1015.5 |
| 20260507002008 | 40 | 308 | 4.0 | 6.0 | 0.00 | 0.00 | 0.00 | 93 | 1015.7 |
| 20260507001223 | 40 | 308 | 4.0 | 6.0 | 0.00 | 0.00 | 0.00 | 92 | 1015.6 |
| 20260507000003 | 41 | 312 | 4.0 | 7.0 | 0.00 | 0.00 | 0.00 | 92 | 1015.8 |
| 20260506235008 | 41 | 305 | 4.0 | 7.0 | 0.00 | 0.00 | 0.00 | 92 | 1015.5 |
| 20260506234008 | 41 | 308 | 4.0 | 8.0 | 0.00 | 0.00 | 0.00 | 91 | 1015.7 |
| 20260506233003 | 41 | 313 | 4.0 | 8.0 | 0.00 | 0.01 | 0.00 | 91 | 1015.7 |
| 20260506232008 | 41 | 308 | 4.0 | 7.0 | 0.00 | 0.01 | 0.00 | 90 | 1015.5 |
| 20260506231008 | 41 | 310 | 4.0 | 8.0 | 0.00 | 0.01 | 0.00 | 90 | 1015.6 |
| 20260506230217 | 41 | 314 | 4.0 | 7.0 | 0.00 | 0.01 | 0.00 | 90 | 1015.6 |
| 20260506225008 | 42 | 308 | 4.0 | 7.0 | 0.00 | 0.01 | 0.01 | 89 | 1015.5 |
| 20260506224008 | 42 | 308 | 4.0 | 9.0 | 0.00 | 0.01 | 0.01 | 89 | 1015.7 |
| 20260506223003 | 42 | 312 | 4.0 | 7.0 | 0.00 | 0.01 | 0.01 | 89 | 1015.6 |
| 20260506222008 | 42 | 311 | 4.0 | 7.0 | 0.00 | 0.01 | 0.01 | 89 | 1015.5 |
| 20260506221003 | 42 | 309 | 4.0 | 7.0 | 0.00 | 0.01 | 0.01 | 88 | 1015.7 |
| 20260506220003 | 42 | 312 | 4.0 | 7.0 | 0.00 | 0.01 | 0.01 | 88 | 1015.5 |
| 20260506215222 | 42 | 313 | 4.0 | 7.0 | 0.00 | 0.01 | 0.01 | 88 | 1015.5 |
| 20260506214003 | 41 | 312 | 4.0 | 6.0 | 0.00 | 0.01 | 0.01 | 88 | 1015.5 |
| 20260506213222 | 41 | 311 | 4.0 | 6.0 | 0.00 | 0.01 | 0.01 | 88 | 1015.2 |
| 20260506212008 | 41 | 310 | 4.0 | 5.0 | 0.00 | 0.01 | 0.01 | 87 | 1015.2 |
| 20260506211013 | 42 | 311 | 4.0 | 6.0 | 0.00 | 0.01 | 0.01 | 87 | 1015.0 |
| 20260506210003 | 42 | 312 | 4.0 | 6.0 | 0.00 | 0.01 | 0.01 | 87 | 1015.2 |
| 20260506205218 | 42 | 313 | 4.0 | 5.0 | 0.00 | 0.01 | 0.01 | 86 | 1014.9 |
| 20260506204008 | 42 | 313 | 3.0 | 6.0 | 0.00 | 0.01 | 0.01 | 85 | 1014.9 |
| 20260506203003 | 42 | 312 | 3.0 | 5.0 | 0.00 | 0.01 | 0.01 | 83 | 1014.7 |
| 20260506202222 | 42 | 312 | 3.0 | 6.0 | 0.00 | 0.01 | 0.01 | 82 | 1014.9 |
| 20260506201008 | 43 | 313 | 3.0 | 5.0 | 0.00 | 0.01 | 0.01 | 79 | 1014.8 |
| 20260506200008 | 43 | 314 | 3.0 | 7.0 | 0.00 | 0.01 | 0.01 | 78 | 1014.7 |
| 20260506195221 | 44 | 312 | 3.0 | 5.0 | 0.00 | 0.01 | 0.01 | 76 | 1014.5 |
| 20260506194008 | 45 | 314 | 4.0 | 6.0 | 0.00 | 0.01 | 0.01 | 73 | 1014.4 |
| 20260506193221 | 46 | 315 | 4.0 | 8.0 | 0.00 | 0.01 | 0.01 | 72 | 1014.4 |
| 20260506192008 | 46 | 311 | 4.0 | 7.0 | 0.00 | 0.01 | 0.01 | 71 | 1014.3 |